Time,TemperatureF,DewpointF,PressureIn,WindDirection,WindDirectionDegrees,WindSpeedMPH,WindSpeedGustMPH,Humidity,HourlyPrecipIn,Conditions,Clouds,dailyrainin,SoftwareType,DateUTC
2013-05-02 00:01:00,53.2,45.1,30.44,ENE,78,0.0,3.0,74,0.00,,,0.00,meteohub,2013-05-02 04:01:00,
2013-05-02 00:06:00,52.9,44.8,30.44,ENE,78,0.0,1.0,74,0.00,,,0.00,meteohub,2013-05-02 04:06:00,
2013-05-02 00:12:00,52.7,44.6,30.44,ENE,78,0.0,1.0,74,0.00,,,0.00,meteohub,2013-05-02 04:12:00,
2013-05-02 00:17:00,52.5,44.8,30.44,SE,146,0.0,1.0,75,0.00,,,0.00,meteohub,2013-05-02 04:17:00,
2013-05-02 00:22:00,52.3,45.0,30.44,ESE,107,1.0,2.0,76,0.00,,,0.00,meteohub,2013-05-02 04:22:00,
2013-05-02 00:27:00,52.2,44.8,30.44,ESE,107,0.0,3.0,76,0.00,,,0.00,meteohub,2013-05-02 04:27:00,
2013-05-02 00:32:00,52.0,44.6,30.44,ESE,107,0.0,3.0,76,0.00,,,0.00,meteohub,2013-05-02 04:32:00,
2013-05-02 00:37:00,51.6,44.6,30.45,ESE,107,0.0,3.0,77,0.00,,,0.00,meteohub,2013-05-02 04:37:00,
2013-05-02 00:42:00,51.4,44.8,30.45,ESE,107,0.0,1.0,78,0.00,,,0.00,meteohub,2013-05-02 04:42:00,
2013-05-02 00:47:00,51.3,44.6,30.45,ESE,107,0.0,0.0,78,0.00,,,0.00,meteohub,2013-05-02 04:47:00,
2013-05-02 00:52:00,51.1,44.8,30.44,ESE,107,0.0,0.0,79,0.00,,,0.00,meteohub,2013-05-02 04:52:00,
2013-05-02 00:57:00,50.7,44.4,30.44,ESE,107,0.0,0.0,79,0.00,,,0.00,meteohub,2013-05-02 04:57:00,
2013-05-02 01:02:00,50.5,44.2,30.44,ESE,107,0.0,0.0,79,0.00,,,0.00,meteohub,2013-05-02 05:02:00,
2013-05-02 01:07:00,50.2,44.2,30.44,ESE,107,0.0,0.0,80,0.00,,,0.00,meteohub,2013-05-02 05:07:00,
2013-05-02 01:12:00,50.0,44.4,30.44,ESE,107,0.0,0.0,81,0.00,,,0.00,meteohub,2013-05-02 05:12:00,
2013-05-02 01:17:00,49.8,44.2,30.44,ESE,107,0.0,0.0,81,0.00,,,0.00,meteohub,2013-05-02 05:17:00,
2013-05-02 01:22:00,49.6,44.4,30.43,ESE,107,0.0,0.0,82,0.00,,,0.00,meteohub,2013-05-02 05:22:00,
2013-05-02 01:27:00,49.3,44.1,30.43,ESE,107,0.0,0.0,82,0.00,,,0.00,meteohub,2013-05-02 05:27:00,
2013-05-02 01:32:00,49.1,44.2,30.43,ESE,107,0.0,0.0,83,0.00,,,0.00,meteohub,2013-05-02 05:32:00,
2013-05-02 01:37:00,48.9,44.2,30.43,ESE,107,0.0,0.0,84,0.00,,,0.00,meteohub,2013-05-02 05:37:00,
2013-05-02 01:42:00,48.7,44.1,30.43,ESE,107,0.0,0.0,84,0.00,,,0.00,meteohub,2013-05-02 05:42:00,
2013-05-02 01:47:00,48.6,44.2,30.43,ESE,107,0.0,0.0,85,0.00,,,0.00,meteohub,2013-05-02 05:47:00,
2013-05-02 01:52:00,48.6,44.2,30.43,ESE,107,0.0,0.0,85,0.00,,,0.00,meteohub,2013-05-02 05:52:00,
2013-05-02 01:57:00,48.4,44.1,30.43,ESE,107,0.0,0.0,85,0.00,,,0.00,meteohub,2013-05-02 05:57:00,
2013-05-02 02:02:00,48.2,43.9,30.43,ESE,107,0.0,0.0,85,0.00,,,0.00,meteohub,2013-05-02 06:02:00,
2013-05-02 02:07:00,48.0,44.1,30.43,ESE,107,0.0,0.0,86,0.00,,,0.00,meteohub,2013-05-02 06:07:00,
2013-05-02 02:12:00,47.8,43.9,30.43,ESE,107,0.0,0.0,86,0.00,,,0.00,meteohub,2013-05-02 06:12:00,
2013-05-02 02:17:00,47.8,44.2,30.43,ESE,107,0.0,0.0,87,0.00,,,0.00,meteohub,2013-05-02 06:17:00,
2013-05-02 02:22:00,47.7,44.1,30.43,ESE,107,0.0,0.0,87,0.00,,,0.00,meteohub,2013-05-02 06:22:00,
2013-05-02 02:27:00,47.7,44.2,30.42,ESE,107,0.0,0.0,88,0.00,,,0.00,meteohub,2013-05-02 06:27:00,
2013-05-02 02:32:00,47.7,44.2,30.42,ESE,107,0.0,0.0,88,0.00,,,0.00,meteohub,2013-05-02 06:32:00,
2013-05-02 02:37:00,47.5,44.1,30.42,ESE,107,0.0,0.0,88,0.00,,,0.00,meteohub,2013-05-02 06:37:00,
2013-05-02 02:42:00,47.5,44.1,30.42,ESE,107,0.0,0.0,88,0.00,,,0.00,meteohub,2013-05-02 06:42:00,
2013-05-02 02:47:00,47.3,43.9,30.42,ESE,107,0.0,0.0,88,0.00,,,0.00,meteohub,2013-05-02 06:47:00,
2013-05-02 02:51:00,47.1,43.7,30.42,ESE,107,0.0,0.0,88,0.00,,,0.00,meteohub,2013-05-02 06:51:00,
2013-05-02 02:56:00,46.9,43.5,30.42,ESE,107,0.0,0.0,88,0.00,,,0.00,meteohub,2013-05-02 06:56:00,
2013-05-02 03:02:00,46.8,43.3,30.42,ESE,107,0.0,0.0,88,0.00,,,0.00,meteohub,2013-05-02 07:02:00,
2013-05-02 03:07:00,46.8,43.7,30.41,ESE,107,0.0,0.0,89,0.00,,,0.00,meteohub,2013-05-02 07:07:00,
2013-05-02 03:12:00,46.6,43.5,30.41,ESE,107,0.0,0.0,89,0.00,,,0.00,meteohub,2013-05-02 07:12:00,
2013-05-02 03:17:00,46.4,43.3,30.41,ESE,107,0.0,0.0,89,0.00,,,0.00,meteohub,2013-05-02 07:17:00,
2013-05-02 03:22:00,46.2,43.5,30.41,ESE,107,0.0,0.0,90,0.00,,,0.00,meteohub,2013-05-02 07:22:00,
2013-05-02 03:27:00,46.0,43.3,30.41,ESE,107,0.0,0.0,90,0.00,,,0.00,meteohub,2013-05-02 07:27:00,
2013-05-02 03:31:00,46.0,43.3,30.42,ESE,107,0.0,0.0,90,0.00,,,0.00,meteohub,2013-05-02 07:31:00,
2013-05-02 03:37:00,45.9,43.2,30.42,ESE,107,0.0,0.0,90,0.00,,,0.00,meteohub,2013-05-02 07:37:00,
2013-05-02 03:42:00,45.7,43.0,30.42,ESE,107,0.0,0.0,90,0.00,,,0.00,meteohub,2013-05-02 07:42:00,
2013-05-02 03:47:00,45.5,43.0,30.42,ESE,107,0.0,0.0,91,0.00,,,0.00,meteohub,2013-05-02 07:47:00,
2013-05-02 03:52:00,45.3,42.8,30.42,ESE,107,0.0,0.0,91,0.00,,,0.00,meteohub,2013-05-02 07:52:00,
2013-05-02 03:57:00,45.3,42.8,30.42,ESE,107,0.0,0.0,91,0.00,,,0.00,meteohub,2013-05-02 07:57:00,
2013-05-02 04:02:00,45.1,42.6,30.42,ESE,107,0.0,0.0,91,0.00,,,0.00,meteohub,2013-05-02 08:02:00,
2013-05-02 04:07:00,45.0,42.4,30.42,ESE,107,0.0,0.0,91,0.00,,,0.00,meteohub,2013-05-02 08:07:00,
2013-05-02 04:12:00,45.0,42.4,30.42,ESE,107,0.0,0.0,91,0.00,,,0.00,meteohub,2013-05-02 08:12:00,
2013-05-02 04:17:00,44.8,42.3,30.42,ESE,107,0.0,0.0,91,0.00,,,0.00,meteohub,2013-05-02 08:17:00,
2013-05-02 04:22:00,44.8,42.6,30.42,ESE,107,0.0,0.0,92,0.00,,,0.00,meteohub,2013-05-02 08:22:00,
2013-05-02 04:27:00,44.6,42.4,30.41,ESE,107,0.0,0.0,92,0.00,,,0.00,meteohub,2013-05-02 08:27:00,
2013-05-02 04:32:00,44.4,42.3,30.41,ESE,107,0.0,0.0,92,0.00,,,0.00,meteohub,2013-05-02 08:32:00,
2013-05-02 04:37:00,44.4,42.3,30.41,ESE,107,0.0,0.0,92,0.00,,,0.00,meteohub,2013-05-02 08:37:00,
2013-05-02 04:42:00,44.2,42.1,30.41,ESE,107,0.0,0.0,92,0.00,,,0.00,meteohub,2013-05-02 08:42:00,
2013-05-02 04:47:00,44.1,41.9,30.41,ESE,107,0.0,0.0,92,0.00,,,0.00,meteohub,2013-05-02 08:47:00,
2013-05-02 04:52:00,44.1,41.9,30.41,ESE,107,0.0,0.0,92,0.00,,,0.00,meteohub,2013-05-02 08:52:00,
2013-05-02 04:57:00,44.1,41.9,30.42,ESE,107,0.0,0.0,92,0.00,,,0.00,meteohub,2013-05-02 08:57:00,
2013-05-02 05:02:00,43.9,41.9,30.42,ESE,107,0.0,0.0,93,0.00,,,0.00,meteohub,2013-05-02 09:02:00,
2013-05-02 05:07:00,43.9,41.9,30.42,ESE,107,0.0,0.0,93,0.00,,,0.00,meteohub,2013-05-02 09:07:00,
2013-05-02 05:12:00,43.9,41.9,30.42,ESE,107,0.0,0.0,93,0.00,,,0.00,meteohub,2013-05-02 09:12:00,
2013-05-02 05:17:00,43.9,42.3,30.41,ESE,107,0.0,0.0,94,0.00,,,0.00,meteohub,2013-05-02 09:17:00,
2013-05-02 05:22:00,43.9,42.3,30.42,ESE,107,0.0,0.0,94,0.00,,,0.00,meteohub,2013-05-02 09:22:00,
2013-05-02 05:27:00,43.9,41.9,30.42,ESE,107,0.0,0.0,93,0.00,,,0.00,meteohub,2013-05-02 09:27:00,
2013-05-02 05:32:00,43.7,41.7,30.42,ESE,107,0.0,0.0,93,0.00,,,0.00,meteohub,2013-05-02 09:32:00,
2013-05-02 05:37:00,43.5,41.7,30.42,ESE,107,0.0,0.0,93,0.00,,,0.00,meteohub,2013-05-02 09:37:00,
2013-05-02 05:42:00,43.3,41.5,30.42,ESE,107,0.0,0.0,93,0.00,,,0.00,meteohub,2013-05-02 09:42:00,
2013-05-02 05:47:00,43.3,41.5,30.42,ESE,107,0.0,0.0,93,0.00,,,0.00,meteohub,2013-05-02 09:47:00,
2013-05-02 05:52:00,43.2,41.4,30.42,ESE,107,0.0,0.0,93,0.00,,,0.00,meteohub,2013-05-02 09:52:00,
2013-05-02 05:57:00,43.2,41.4,30.42,ESE,107,0.0,0.0,93,0.00,,,0.00,meteohub,2013-05-02 09:57:00,
2013-05-02 06:02:00,43.0,41.2,30.42,ESE,107,0.0,0.0,93,0.00,,,0.00,meteohub,2013-05-02 10:02:00,
2013-05-02 06:07:00,43.0,41.4,30.42,ESE,107,0.0,0.0,94,0.00,,,0.00,meteohub,2013-05-02 10:07:00,
2013-05-02 06:12:00,43.0,41.4,30.42,ESE,107,0.0,0.0,94,0.00,,,0.00,meteohub,2013-05-02 10:12:00,
2013-05-02 06:17:00,43.0,41.4,30.43,ESE,107,0.0,0.0,94,0.00,,,0.00,meteohub,2013-05-02 10:17:00,
2013-05-02 06:22:00,43.0,41.4,30.43,ESE,107,0.0,0.0,94,0.00,,,0.00,meteohub,2013-05-02 10:22:00,
2013-05-02 06:27:00,42.8,41.2,30.43,ESE,107,0.0,0.0,94,0.00,,,0.00,meteohub,2013-05-02 10:27:00,
2013-05-02 06:32:00,42.8,41.2,30.43,ESE,107,0.0,0.0,94,0.00,,,0.00,meteohub,2013-05-02 10:32:00,
2013-05-02 06:37:00,42.8,41.2,30.43,ESE,107,0.0,0.0,94,0.00,,,0.00,meteohub,2013-05-02 10:37:00,
2013-05-02 06:42:00,43.0,41.4,30.43,ESE,107,0.0,0.0,94,0.00,,,0.00,meteohub,2013-05-02 10:42:00,
2013-05-02 06:47:00,43.0,41.7,30.43,ESE,107,0.0,0.0,95,0.00,,,0.00,meteohub,2013-05-02 10:47:00,
2013-05-02 06:52:00,43.0,41.7,30.43,ESE,107,0.0,0.0,95,0.00,,,0.00,meteohub,2013-05-02 10:52:00,
2013-05-02 06:57:00,43.0,41.7,30.43,ESE,107,0.0,0.0,95,0.00,,,0.00,meteohub,2013-05-02 10:57:00,
2013-05-02 07:02:00,43.2,41.9,30.43,South,178,0.0,1.0,95,0.00,,,0.00,meteohub,2013-05-02 11:02:00,
2013-05-02 07:07:00,43.5,42.4,30.43,South,178,0.0,2.0,96,0.00,,,0.00,meteohub,2013-05-02 11:07:00,
2013-05-02 07:12:00,44.2,43.2,30.43,NNE,28,2.0,2.0,96,0.00,,,0.00,meteohub,2013-05-02 11:12:00,
2013-05-02 07:17:00,45.0,43.9,30.43,SE,132,0.0,4.0,96,0.00,,,0.00,meteohub,2013-05-02 11:17:00,
2013-05-02 07:22:00,45.3,44.2,30.44,NE,55,0.0,4.0,96,0.00,,,0.00,meteohub,2013-05-02 11:22:00,
2013-05-02 07:27:00,45.9,45.1,30.44,ENE,62,0.0,4.0,97,0.00,,,0.00,meteohub,2013-05-02 11:27:00,
2013-05-02 07:32:00,46.2,45.1,30.44,East,84,0.0,4.0,96,0.00,,,0.00,meteohub,2013-05-02 11:32:00,
2013-05-02 07:37:00,46.6,45.5,30.44,ESE,122,0.0,5.0,96,0.00,,,0.00,meteohub,2013-05-02 11:37:00,
2013-05-02 07:42:00,46.8,45.7,30.44,NNE,19,5.0,5.0,96,0.00,,,0.00,meteohub,2013-05-02 11:42:00,
2013-05-02 07:47:00,46.9,45.5,30.44,SSE,155,1.0,6.0,95,0.00,,,0.00,meteohub,2013-05-02 11:47:00,
2013-05-02 07:52:00,46.9,45.3,30.44,North,355,0.0,6.0,94,0.00,,,0.00,meteohub,2013-05-02 11:52:00,
2013-05-02 07:57:00,47.1,45.1,30.44,NE,34,4.0,6.0,93,0.00,,,0.00,meteohub,2013-05-02 11:57:00,
2013-05-02 08:02:00,47.3,45.1,30.44,NNE,27,1.0,5.0,92,0.00,,,0.00,meteohub,2013-05-02 12:02:00,
2013-05-02 08:07:00,47.5,45.3,30.45,NNE,29,0.0,4.0,92,0.00,,,0.00,meteohub,2013-05-02 12:07:00,
2013-05-02 08:12:00,47.5,45.3,30.45,North,0,1.0,6.0,92,0.00,,,0.00,meteohub,2013-05-02 12:12:00,
2013-05-02 08:17:00,47.7,45.5,30.45,North,0,1.0,6.0,92,0.00,,,0.00,meteohub,2013-05-02 12:17:00,
2013-05-02 08:22:00,47.8,45.0,30.45,NNE,28,0.0,6.0,90,0.00,,,0.00,meteohub,2013-05-02 12:22:00,
2013-05-02 08:27:00,48.0,45.1,30.45,NNE,17,0.0,6.0,90,0.00,,,0.00,meteohub,2013-05-02 12:27:00,
2013-05-02 08:32:00,48.4,45.5,30.45,NE,39,1.0,6.0,90,0.00,,,0.00,meteohub,2013-05-02 12:32:00,
2013-05-02 08:37:00,48.6,45.5,30.46,NNE,27,2.0,3.0,89,0.00,,,0.00,meteohub,2013-05-02 12:37:00,
2013-05-02 08:42:00,48.7,45.7,30.46,NNE,25,2.0,4.0,89,0.00,,,0.00,meteohub,2013-05-02 12:42:00,
2013-05-02 08:47:00,49.1,45.7,30.46,ENE,62,0.0,4.0,88,0.00,,,0.00,meteohub,2013-05-02 12:47:00,
2013-05-02 08:52:00,49.3,45.5,30.46,ENE,69,0.0,4.0,87,0.00,,,0.00,meteohub,2013-05-02 12:52:00,
2013-05-02 08:57:00,49.6,46.2,30.45,ENE,69,0.0,4.0,88,0.00,,,0.00,meteohub,2013-05-02 12:57:00,
2013-05-02 09:02:00,49.8,45.9,30.45,WSW,250,0.0,4.0,86,0.00,,,0.00,meteohub,2013-05-02 13:02:00,
2013-05-02 09:07:00,50.4,46.0,30.46,North,355,3.0,3.0,85,0.00,,,0.00,meteohub,2013-05-02 13:07:00,
2013-05-02 09:12:00,50.5,45.9,30.46,NNE,28,1.0,3.0,84,0.00,,,0.00,meteohub,2013-05-02 13:12:00,
2013-05-02 09:17:00,51.1,45.9,30.46,NNE,30,3.0,3.0,82,0.00,,,0.00,meteohub,2013-05-02 13:17:00,
2013-05-02 09:22:00,51.3,45.7,30.46,ESE,121,0.0,5.0,81,0.00,,,0.00,meteohub,2013-05-02 13:22:00,
2013-05-02 09:27:00,51.4,46.2,30.46,NNE,15,2.0,5.0,82,0.00,,,0.00,meteohub,2013-05-02 13:27:00,
2013-05-02 09:32:00,51.8,46.2,30.46,SSE,157,2.0,5.0,81,0.00,,,0.00,meteohub,2013-05-02 13:32:00,
2013-05-02 09:37:00,52.0,46.4,30.46,NNE,20,1.0,5.0,81,0.00,,,0.00,meteohub,2013-05-02 13:37:00,
2013-05-02 09:42:00,52.3,46.4,30.46,NNW,329,0.0,5.0,80,0.00,,,0.00,meteohub,2013-05-02 13:42:00,
2013-05-02 09:47:00,52.5,46.6,30.46,NNW,327,2.0,6.0,80,0.00,,,0.00,meteohub,2013-05-02 13:47:00,
2013-05-02 09:52:00,52.9,46.9,30.46,NNE,24,0.0,6.0,80,0.00,,,0.00,meteohub,2013-05-02 13:52:00,
2013-05-02 09:57:00,53.2,47.3,30.46,NNW,331,2.0,4.0,80,0.00,,,0.00,meteohub,2013-05-02 13:57:00,
2013-05-02 10:02:00,53.6,47.7,30.46,North,349,4.0,4.0,80,0.00,,,0.00,meteohub,2013-05-02 14:02:00,
2013-05-02 10:07:00,54.1,47.5,30.46,NNW,340,2.0,5.0,78,0.00,,,0.00,meteohub,2013-05-02 14:07:00,
2013-05-02 10:12:00,54.7,47.7,30.46,NNE,17,2.0,5.0,77,0.00,,,0.00,meteohub,2013-05-02 14:12:00,
2013-05-02 10:17:00,55.4,48.9,30.46,SE,127,1.0,4.0,79,0.00,,,0.00,meteohub,2013-05-02 14:17:00,
2013-05-02 10:22:00,56.5,48.4,30.46,NNE,27,2.0,5.0,74,0.00,,,0.00,meteohub,2013-05-02 14:22:00,
2013-05-02 10:27:00,57.0,48.7,30.46,SSE,155,3.0,7.0,74,0.00,,,0.00,meteohub,2013-05-02 14:27:00,
2013-05-02 10:32:00,57.6,48.9,30.45,NNE,19,2.0,7.0,73,0.00,,,0.00,meteohub,2013-05-02 14:32:00,
2013-05-02 10:37:00,58.3,48.9,30.45,South,178,3.0,7.0,71,0.00,,,0.00,meteohub,2013-05-02 14:37:00,
2013-05-02 10:42:00,58.3,47.8,30.45,SE,138,2.0,7.0,68,0.00,,,0.00,meteohub,2013-05-02 14:42:00,
2013-05-02 10:47:00,58.6,50.4,30.45,SE,130,0.0,7.0,74,0.00,,,0.00,meteohub,2013-05-02 14:47:00,
2013-05-02 10:52:00,59.5,50.5,30.45,West,281,1.0,7.0,72,0.00,,,0.00,meteohub,2013-05-02 14:52:00,
2013-05-02 10:57:00,60.1,49.5,30.45,ESE,113,1.0,6.0,68,0.00,,,0.00,meteohub,2013-05-02 14:57:00,
2013-05-02 11:02:00,60.4,50.5,30.45,NE,47,2.0,6.0,70,0.00,,,0.00,meteohub,2013-05-02 15:02:00,
2013-05-02 11:07:00,60.4,49.8,30.45,WNW,302,0.0,5.0,68,0.00,,,0.00,meteohub,2013-05-02 15:07:00,
2013-05-02 11:12:00,60.8,50.9,30.45,ESE,104,1.0,5.0,70,0.00,,,0.00,meteohub,2013-05-02 15:12:00,
2013-05-02 11:17:00,61.3,51.1,30.44,NNW,345,0.0,4.0,69,0.00,,,0.00,meteohub,2013-05-02 15:17:00,
2013-05-02 11:22:00,62.1,51.4,30.45,ENE,67,2.0,3.0,68,0.00,,,0.00,meteohub,2013-05-02 15:22:00,
2013-05-02 11:27:00,62.4,50.0,30.44,NNE,15,3.0,3.0,64,0.00,,,0.00,meteohub,2013-05-02 15:27:00,
2013-05-02 11:32:00,62.8,50.4,30.45,SE,138,1.0,4.0,64,0.00,,,0.00,meteohub,2013-05-02 15:32:00,
2013-05-02 11:37:00,63.3,50.0,30.44,West,274,1.0,4.0,62,0.00,,,0.00,meteohub,2013-05-02 15:37:00,
2013-05-02 11:41:00,63.7,50.4,30.44,NE,35,0.0,4.0,62,0.00,,,0.00,meteohub,2013-05-02 15:41:00,
2013-05-02 11:47:00,63.7,50.0,30.44,NNE,31,3.0,4.0,61,0.00,,,0.00,meteohub,2013-05-02 15:47:00,
2013-05-02 11:52:00,63.3,50.5,30.44,NNE,26,3.0,8.0,63,0.00,,,0.00,meteohub,2013-05-02 15:52:00,
2013-05-02 11:57:00,63.1,49.8,30.44,SSE,166,4.0,8.0,62,0.00,,,0.00,meteohub,2013-05-02 15:57:00,
2013-05-02 12:02:00,63.3,51.4,30.43,NW,319,2.0,8.0,65,0.00,,,0.00,meteohub,2013-05-02 16:02:00,
2013-05-02 12:07:00,63.9,48.4,30.43,NNW,333,2.0,7.0,57,0.00,,,0.00,meteohub,2013-05-02 16:07:00,
2013-05-02 12:12:00,63.9,50.5,30.43,NNE,30,3.0,7.0,62,0.00,,,0.00,meteohub,2013-05-02 16:12:00,
2013-05-02 12:17:00,64.0,49.8,30.43,South,186,3.0,6.0,60,0.00,,,0.00,meteohub,2013-05-02 16:17:00,
2013-05-02 12:22:00,64.4,49.8,30.43,NE,34,4.0,9.0,59,0.00,,,0.00,meteohub,2013-05-02 16:22:00,
2013-05-02 12:27:00,64.9,49.8,30.43,WSW,254,2.0,9.0,58,0.00,,,0.00,meteohub,2013-05-02 16:27:00,
2013-05-02 12:32:00,65.3,49.6,30.43,ESE,107,3.0,9.0,57,0.00,,,0.00,meteohub,2013-05-02 16:32:00,
2013-05-02 12:37:00,65.3,51.1,30.42,ENE,72,0.0,6.0,60,0.00,,,0.00,meteohub,2013-05-02 16:37:00,
2013-05-02 12:42:00,65.5,51.3,30.42,North,0,2.0,9.0,60,0.00,,,0.00,meteohub,2013-05-02 16:42:00,
2013-05-02 12:47:00,65.7,50.0,30.42,SW,221,1.0,9.0,57,0.00,,,0.00,meteohub,2013-05-02 16:47:00,
2013-05-02 12:52:00,65.8,50.7,30.42,NNW,328,1.0,9.0,58,0.00,,,0.00,meteohub,2013-05-02 16:52:00,
2013-05-02 12:57:00,66.4,52.5,30.42,NNE,30,0.0,9.0,61,0.00,,,0.00,meteohub,2013-05-02 16:57:00,
2013-05-02 13:02:00,66.2,49.6,30.42,NE,53,1.0,6.0,55,0.00,,,0.00,meteohub,2013-05-02 17:02:00,
2013-05-02 13:07:00,66.0,50.9,30.42,ENE,75,1.0,5.0,58,0.00,,,0.00,meteohub,2013-05-02 17:07:00,
2013-05-02 13:12:00,66.0,50.4,30.42,NNE,19,5.0,5.0,57,0.00,,,0.00,meteohub,2013-05-02 17:12:00,
2013-05-02 13:17:00,66.0,49.5,30.41,NNE,18,7.0,7.0,55,0.00,,,0.00,meteohub,2013-05-02 17:17:00,
2013-05-02 13:22:00,66.0,48.9,30.42,SSE,165,3.0,8.0,54,0.00,,,0.00,meteohub,2013-05-02 17:22:00,
2013-05-02 13:27:00,66.2,49.6,30.41,ESE,115,1.0,8.0,55,0.00,,,0.00,meteohub,2013-05-02 17:27:00,
2013-05-02 13:32:00,66.6,49.5,30.41,SSE,154,4.0,8.0,54,0.00,,,0.00,meteohub,2013-05-02 17:32:00,
2013-05-02 13:37:00,66.7,49.6,30.41,NNE,16,2.0,7.0,54,0.00,,,0.00,meteohub,2013-05-02 17:37:00,
2013-05-02 13:42:00,67.3,51.1,30.41,East,91,0.0,6.0,56,0.00,,,0.00,meteohub,2013-05-02 17:42:00,
2013-05-02 13:47:00,67.8,49.1,30.41,West,264,0.0,6.0,51,0.00,,,0.00,meteohub,2013-05-02 17:47:00,
2013-05-02 13:52:00,67.5,47.7,30.41,North,5,0.0,6.0,49,0.00,,,0.00,meteohub,2013-05-02 17:52:00,
2013-05-02 13:57:00,67.5,49.3,30.41,NNE,30,1.0,6.0,52,0.00,,,0.00,meteohub,2013-05-02 17:57:00,
2013-05-02 14:02:00,68.4,51.1,30.41,WSW,253,2.0,6.0,54,0.00,,,0.00,meteohub,2013-05-02 18:02:00,
2013-05-02 14:07:00,69.1,50.7,30.40,WNW,301,1.0,6.0,52,0.00,,,0.00,meteohub,2013-05-02 18:07:00,
2013-05-02 14:12:00,69.3,48.7,30.41,SE,142,3.0,6.0,48,0.00,,,0.00,meteohub,2013-05-02 18:12:00,
2013-05-02 14:17:00,69.3,47.7,30.41,SSW,196,2.0,6.0,46,0.00,,,0.00,meteohub,2013-05-02 18:17:00,
2013-05-02 14:22:00,68.9,48.9,30.40,NNE,19,3.0,7.0,49,0.00,,,0.00,meteohub,2013-05-02 18:22:00,
2013-05-02 14:27:00,68.2,47.7,30.40,NE,44,3.0,8.0,48,0.00,,,0.00,meteohub,2013-05-02 18:27:00,
2013-05-02 14:32:00,68.5,49.6,30.40,NNE,30,4.0,8.0,51,0.00,,,0.00,meteohub,2013-05-02 18:32:00,
2013-05-02 14:37:00,68.9,48.4,30.40,NE,54,2.0,8.0,48,0.00,,,0.00,meteohub,2013-05-02 18:37:00,
2013-05-02 14:42:00,68.9,47.8,30.40,SSW,200,1.0,6.0,47,0.00,,,0.00,meteohub,2013-05-02 18:42:00,
2013-05-02 14:47:00,69.3,45.9,30.40,South,171,3.0,7.0,43,0.00,,,0.00,meteohub,2013-05-02 18:47:00,
2013-05-02 14:52:00,69.4,47.8,30.40,North,349,5.0,8.0,46,0.00,,,0.00,meteohub,2013-05-02 18:52:00,
2013-05-02 14:57:00,69.4,46.6,30.40,SE,143,1.0,9.0,44,0.00,,,0.00,meteohub,2013-05-02 18:57:00,
2013-05-02 15:02:00,69.3,46.9,30.40,NNE,27,4.0,9.0,45,0.00,,,0.00,meteohub,2013-05-02 19:02:00,
2013-05-02 15:07:00,69.3,47.7,30.40,NNE,12,2.0,9.0,46,0.00,,,0.00,meteohub,2013-05-02 19:07:00,
2013-05-02 15:12:00,69.3,49.3,30.40,ESE,115,1.0,8.0,49,0.00,,,0.00,meteohub,2013-05-02 19:12:00,
2013-05-02 15:17:00,69.4,48.4,30.40,ESE,113,3.0,8.0,47,0.00,,,0.00,meteohub,2013-05-02 19:17:00,
2013-05-02 15:22:00,69.3,48.2,30.40,North,5,3.0,9.0,47,0.00,,,0.00,meteohub,2013-05-02 19:22:00,
2013-05-02 15:27:00,68.7,48.7,30.39,NE,44,2.0,9.0,49,0.00,,,0.00,meteohub,2013-05-02 19:27:00,
2013-05-02 15:32:00,68.4,49.5,30.39,NNE,22,2.0,9.0,51,0.00,,,0.00,meteohub,2013-05-02 19:32:00,
2013-05-02 15:38:00,68.2,48.9,30.39,North,5,1.0,8.0,50,0.00,,,0.00,meteohub,2013-05-02 19:38:00,
2013-05-02 15:43:00,68.4,52.5,30.38,NE,55,4.0,8.0,57,0.00,,,0.00,meteohub,2013-05-02 19:43:00,
2013-05-02 15:48:00,68.5,52.2,30.39,NW,311,4.0,7.0,56,0.00,,,0.00,meteohub,2013-05-02 19:48:00,
2013-05-02 15:53:00,68.2,50.4,30.38,North,350,3.0,9.0,53,0.00,,,0.00,meteohub,2013-05-02 19:53:00,
2013-05-02 15:58:00,68.4,50.0,30.38,NE,37,2.0,9.0,52,0.00,,,0.00,meteohub,2013-05-02 19:58:00,
2013-05-02 16:03:00,68.4,50.0,30.38,ESE,111,5.0,9.0,52,0.00,,,0.00,meteohub,2013-05-02 20:03:00,
2013-05-02 16:08:00,68.4,49.5,30.38,South,175,2.0,9.0,51,0.00,,,0.00,meteohub,2013-05-02 20:08:00,
2013-05-02 16:13:00,68.4,51.1,30.38,East,86,2.0,9.0,54,0.00,,,0.00,meteohub,2013-05-02 20:13:00,
2013-05-02 16:18:00,68.7,50.4,30.38,NNE,30,0.0,9.0,52,0.00,,,0.00,meteohub,2013-05-02 20:18:00,
2013-05-02 16:23:00,68.7,49.3,30.38,WNW,287,3.0,9.0,50,0.00,,,0.00,meteohub,2013-05-02 20:23:00,
2013-05-02 16:28:00,68.7,49.3,30.37,SE,128,3.0,9.0,50,0.00,,,0.00,meteohub,2013-05-02 20:28:00,
2013-05-02 16:33:00,68.4,49.5,30.37,ENE,64,2.0,8.0,51,0.00,,,0.00,meteohub,2013-05-02 20:33:00,
2013-05-02 16:38:00,68.4,50.0,30.37,ESE,114,4.0,8.0,52,0.00,,,0.00,meteohub,2013-05-02 20:38:00,
2013-05-02 16:43:00,68.5,49.1,30.37,SE,142,1.0,8.0,50,0.00,,,0.00,meteohub,2013-05-02 20:43:00,
2013-05-02 16:48:00,68.2,49.8,30.37,WSW,258,0.0,7.0,52,0.00,,,0.00,meteohub,2013-05-02 20:48:00,
2013-05-02 16:53:00,68.4,48.9,30.37,SE,124,3.0,7.0,50,0.00,,,0.00,meteohub,2013-05-02 20:53:00,
2013-05-02 16:58:00,68.2,49.8,30.37,SW,234,2.0,8.0,52,0.00,,,0.00,meteohub,2013-05-02 20:58:00,
2013-05-02 17:03:00,68.4,50.0,30.37,ENE,67,1.0,8.0,52,0.00,,,0.00,meteohub,2013-05-02 21:03:00,
2013-05-02 17:08:00,68.4,49.5,30.36,East,82,1.0,8.0,51,0.00,,,0.00,meteohub,2013-05-02 21:08:00,
2013-05-02 17:13:00,68.2,48.9,30.37,NNE,29,2.0,9.0,50,0.00,,,0.00,meteohub,2013-05-02 21:13:00,
2013-05-02 17:18:00,67.8,49.6,30.36,NNE,27,2.0,9.0,52,0.00,,,0.00,meteohub,2013-05-02 21:18:00,
2013-05-02 17:23:00,67.6,49.5,30.36,WSW,244,3.0,9.0,52,0.00,,,0.00,meteohub,2013-05-02 21:23:00,
2013-05-02 17:28:00,67.5,48.7,30.36,SSW,204,3.0,6.0,51,0.00,,,0.00,meteohub,2013-05-02 21:28:00,
2013-05-02 17:33:00,67.3,48.6,30.36,SSW,198,3.0,11.0,51,0.00,,,0.00,meteohub,2013-05-02 21:33:00,
2013-05-02 17:38:00,66.9,47.7,30.36,SW,214,1.0,11.0,50,0.00,,,0.00,meteohub,2013-05-02 21:38:00,
2013-05-02 17:43:00,66.9,49.8,30.36,North,5,2.0,11.0,54,0.00,,,0.00,meteohub,2013-05-02 21:43:00,
2013-05-02 17:48:00,66.9,48.7,30.35,West,263,1.0,7.0,52,0.00,,,0.00,meteohub,2013-05-02 21:48:00,
2013-05-02 17:53:00,67.1,48.9,30.35,NE,36,1.0,7.0,52,0.00,,,0.00,meteohub,2013-05-02 21:53:00,
2013-05-02 17:58:00,67.1,49.8,30.36,North,355,1.0,8.0,54,0.00,,,0.00,meteohub,2013-05-02 21:58:00,
2013-05-02 18:03:00,66.9,48.7,30.36,NNE,15,3.0,8.0,52,0.00,,,0.00,meteohub,2013-05-02 22:03:00,
2013-05-02 18:08:00,66.9,49.3,30.35,NNE,24,1.0,9.0,53,0.00,,,0.00,meteohub,2013-05-02 22:08:00,
2013-05-02 18:13:00,66.7,49.1,30.35,SE,126,1.0,9.0,53,0.00,,,0.00,meteohub,2013-05-02 22:13:00,
2013-05-02 18:18:00,66.6,48.9,30.35,ESE,106,0.0,9.0,53,0.00,,,0.00,meteohub,2013-05-02 22:18:00,
2013-05-02 18:23:00,66.4,48.2,30.35,ESE,109,0.0,7.0,52,0.00,,,0.00,meteohub,2013-05-02 22:23:00,
2013-05-02 18:28:00,66.0,47.8,30.35,East,92,2.0,6.0,52,0.00,,,0.00,meteohub,2013-05-02 22:28:00,
2013-05-02 18:33:00,65.8,47.1,30.35,SSE,164,2.0,6.0,51,0.00,,,0.00,meteohub,2013-05-02 22:33:00,
2013-05-02 18:38:00,65.8,48.2,30.35,South,177,0.0,6.0,53,0.00,,,0.00,meteohub,2013-05-02 22:38:00,
2013-05-02 18:44:00,65.7,47.1,30.35,SSE,164,1.0,6.0,51,0.00,,,0.00,meteohub,2013-05-02 22:44:00,
2013-05-02 18:49:00,65.5,47.5,30.35,WNW,290,2.0,5.0,52,0.00,,,0.00,meteohub,2013-05-02 22:49:00,
2013-05-02 18:54:00,65.1,47.5,30.34,ENE,69,0.0,5.0,53,0.00,,,0.00,meteohub,2013-05-02 22:54:00,
2013-05-02 18:59:00,64.9,46.9,30.35,ESE,117,1.0,5.0,52,0.00,,,0.00,meteohub,2013-05-02 22:59:00,
2013-05-02 19:04:00,64.9,46.9,30.34,NE,53,1.0,5.0,52,0.00,,,0.00,meteohub,2013-05-02 23:04:00,
2013-05-02 19:09:00,64.6,47.5,30.34,WNW,298,0.0,5.0,54,0.00,,,0.00,meteohub,2013-05-02 23:09:00,
2013-05-02 19:14:00,64.4,47.5,30.34,SSW,201,0.0,4.0,54,0.00,,,0.00,meteohub,2013-05-02 23:14:00,
2013-05-02 19:19:00,64.2,47.3,30.35,South,181,4.0,4.0,54,0.00,,,0.00,meteohub,2013-05-02 23:19:00,
2013-05-02 19:24:00,64.0,46.0,30.35,SSE,150,0.0,3.0,52,0.00,,,0.00,meteohub,2013-05-02 23:24:00,
2013-05-02 19:29:00,63.9,46.4,30.35,SSE,153,1.0,4.0,53,0.00,,,0.00,meteohub,2013-05-02 23:29:00,
2013-05-02 19:34:00,63.7,46.2,30.35,East,97,0.0,4.0,53,0.00,,,0.00,meteohub,2013-05-02 23:34:00,
2013-05-02 19:39:00,63.5,46.6,30.35,South,182,0.0,4.0,54,0.00,,,0.00,meteohub,2013-05-02 23:39:00,
2013-05-02 19:44:00,63.1,46.2,30.35,SSE,160,0.0,4.0,54,0.00,,,0.00,meteohub,2013-05-02 23:44:00,
2013-05-02 19:49:00,63.0,46.6,30.35,SSE,160,0.0,2.0,55,0.00,,,0.00,meteohub,2013-05-02 23:49:00,
2013-05-02 19:54:00,62.8,46.4,30.34,SSE,160,0.0,2.0,55,0.00,,,0.00,meteohub,2013-05-02 23:54:00,
2013-05-02 19:59:00,62.2,46.8,30.34,SSE,160,0.0,2.0,57,0.00,,,0.00,meteohub,2013-05-02 23:59:00,
2013-05-02 20:04:00,61.9,46.4,30.34,SSE,160,0.0,1.0,57,0.00,,,0.00,meteohub,2013-05-03 00:04:00,
2013-05-02 20:09:00,61.5,46.6,30.34,SSE,160,0.0,1.0,58,0.00,,,0.00,meteohub,2013-05-03 00:09:00,
2013-05-02 20:14:00,61.2,46.2,30.34,SSE,160,0.0,1.0,58,0.00,,,0.00,meteohub,2013-05-03 00:14:00,
2013-05-02 20:19:00,60.6,46.2,30.34,SSE,160,0.0,1.0,59,0.00,,,0.00,meteohub,2013-05-03 00:19:00,
2013-05-02 20:24:00,60.3,46.4,30.34,SSE,160,0.0,0.0,60,0.00,,,0.00,meteohub,2013-05-03 00:24:00,
2013-05-02 20:29:00,60.1,46.6,30.34,SSE,160,0.0,0.0,61,0.00,,,0.00,meteohub,2013-05-03 00:29:00,
2013-05-02 20:34:00,59.5,46.6,30.34,SSE,160,0.0,0.0,62,0.00,,,0.00,meteohub,2013-05-03 00:34:00,
2013-05-02 20:39:00,59.4,46.4,30.34,SSE,160,0.0,0.0,62,0.00,,,0.00,meteohub,2013-05-03 00:39:00,
2013-05-02 20:44:00,59.0,46.4,30.35,SSE,160,0.0,0.0,63,0.00,,,0.00,meteohub,2013-05-03 00:44:00,
2013-05-02 20:49:00,58.6,46.0,30.35,SSE,160,0.0,0.0,63,0.00,,,0.00,meteohub,2013-05-03 00:49:00,
2013-05-02 20:54:00,58.3,46.2,30.35,SSE,160,0.0,0.0,64,0.00,,,0.00,meteohub,2013-05-03 00:54:00,
2013-05-02 20:59:00,57.7,46.0,30.34,SSE,160,0.0,1.0,65,0.00,,,0.00,meteohub,2013-05-03 00:59:00,
2013-05-02 21:04:00,57.6,46.2,30.35,SSE,160,0.0,1.0,66,0.00,,,0.00,meteohub,2013-05-03 01:04:00,
2013-05-02 21:09:00,57.0,46.2,30.35,SSE,160,0.0,1.0,67,0.00,,,0.00,meteohub,2013-05-03 01:09:00,
2013-05-02 21:14:00,56.8,46.4,30.35,SSE,160,0.0,0.0,68,0.00,,,0.00,meteohub,2013-05-03 01:14:00,
2013-05-02 21:19:00,56.7,46.6,30.35,SSE,160,0.0,0.0,69,0.00,,,0.00,meteohub,2013-05-03 01:19:00,
2013-05-02 21:24:00,56.3,46.2,30.35,SSE,160,0.0,0.0,69,0.00,,,0.00,meteohub,2013-05-03 01:24:00,
2013-05-02 21:29:00,55.9,46.2,30.35,SSE,160,0.0,0.0,70,0.00,,,0.00,meteohub,2013-05-03 01:29:00,
2013-05-02 21:34:00,55.8,46.6,30.35,SSE,160,0.0,0.0,71,0.00,,,0.00,meteohub,2013-05-03 01:34:00,
2013-05-02 21:39:00,55.6,46.4,30.35,SSE,160,0.0,0.0,71,0.00,,,0.00,meteohub,2013-05-03 01:39:00,
2013-05-02 21:44:00,55.4,46.6,30.35,SSE,160,0.0,0.0,72,0.00,,,0.00,meteohub,2013-05-03 01:44:00,
2013-05-02 21:49:00,55.2,46.4,30.35,SSE,160,0.0,0.0,72,0.00,,,0.00,meteohub,2013-05-03 01:49:00,
2013-05-02 21:55:00,55.0,46.2,30.35,SSE,160,0.0,0.0,72,0.00,,,0.00,meteohub,2013-05-03 01:55:00,
2013-05-02 22:00:00,54.9,46.0,30.35,SSE,160,0.0,0.0,72,0.00,,,0.00,meteohub,2013-05-03 02:00:00,
2013-05-02 22:05:00,54.7,46.2,30.35,SSE,160,0.0,0.0,73,0.00,,,0.00,meteohub,2013-05-03 02:05:00,
2013-05-02 22:10:00,54.3,45.9,30.35,SSE,160,0.0,0.0,73,0.00,,,0.00,meteohub,2013-05-03 02:10:00,
2013-05-02 22:15:00,54.1,45.7,30.35,SSE,160,0.0,0.0,73,0.00,,,0.00,meteohub,2013-05-03 02:15:00,
2013-05-02 22:20:00,54.0,45.5,30.34,SSE,160,0.0,0.0,73,0.00,,,0.00,meteohub,2013-05-03 02:20:00,
2013-05-02 22:25:00,53.8,45.3,30.34,SSE,160,0.0,0.0,73,0.00,,,0.00,meteohub,2013-05-03 02:25:00,
2013-05-02 22:30:00,53.6,45.1,30.34,SSE,160,0.0,0.0,73,0.00,,,0.00,meteohub,2013-05-03 02:30:00,
2013-05-02 22:35:00,53.4,45.3,30.34,SSE,160,0.0,0.0,74,0.00,,,0.00,meteohub,2013-05-03 02:35:00,
2013-05-02 22:40:00,53.2,45.1,30.34,SSE,160,0.0,0.0,74,0.00,,,0.00,meteohub,2013-05-03 02:40:00,
2013-05-02 22:45:00,53.1,45.3,30.34,SSE,160,0.0,0.0,75,0.00,,,0.00,meteohub,2013-05-03 02:45:00,
2013-05-02 22:50:00,53.1,45.0,30.34,SSE,160,0.0,0.0,74,0.00,,,0.00,meteohub,2013-05-03 02:50:00,
2013-05-02 22:55:00,52.9,45.1,30.34,SSE,160,0.0,0.0,75,0.00,,,0.00,meteohub,2013-05-03 02:55:00,
2013-05-02 23:00:00,52.9,45.1,30.34,SSE,160,0.0,0.0,75,0.00,,,0.00,meteohub,2013-05-03 03:00:00,
2013-05-02 23:05:00,52.9,45.1,30.34,SSE,160,0.0,0.0,75,0.00,,,0.00,meteohub,2013-05-03 03:05:00,
2013-05-02 23:10:00,52.7,45.0,30.34,SSE,160,0.0,0.0,75,0.00,,,0.00,meteohub,2013-05-03 03:10:00,
2013-05-02 23:15:00,52.5,44.8,30.34,SSE,160,0.0,0.0,75,0.00,,,0.00,meteohub,2013-05-03 03:15:00,
2013-05-02 23:20:00,52.5,45.1,30.34,SSE,160,0.0,0.0,76,0.00,,,0.00,meteohub,2013-05-03 03:20:00,
2013-05-02 23:25:00,52.3,45.0,30.34,SSE,160,0.0,0.0,76,0.00,,,0.00,meteohub,2013-05-03 03:25:00,
2013-05-02 23:30:00,52.3,45.3,30.34,SSE,160,0.0,0.0,77,0.00,,,0.00,meteohub,2013-05-03 03:30:00,
2013-05-02 23:35:00,52.2,44.8,30.34,SSE,160,0.0,0.0,76,0.00,,,0.00,meteohub,2013-05-03 03:35:00,
2013-05-02 23:40:00,52.2,45.1,30.34,SSE,160,0.0,0.0,77,0.00,,,0.00,meteohub,2013-05-03 03:40:00,
2013-05-02 23:45:00,52.0,45.0,30.34,SSE,160,0.0,0.0,77,0.00,,,0.00,meteohub,2013-05-03 03:45:00,
2013-05-02 23:50:00,52.0,45.0,30.34,SSE,160,0.0,0.0,77,0.00,,,0.00,meteohub,2013-05-03 03:50:00,
2013-05-02 23:55:00,52.0,45.0,30.34,SSE,160,0.0,0.0,77,0.00,,,0.00,meteohub,2013-05-03 03:55:00,